Tracking 19795 objects as of 20-Jul-2019
HD Live streaming from Space Station
objects crossing your sky now

RADUGA 1-7

Track RADUGA 1-7 now!
RADUGA 1-7 is classified as:


NORAD ID: 28194
Int'l Code: 2004-010A
Perigee: 35,782.1 km
Apogee: 35,797.9 km
Inclination: 10.7 °
Period: 1,435.9 minutes
Semi major axis: 42160 km
RCS: 12.5893 m2 (large)
Launch date: March 27, 2004
Source: Commonwealth of Independent States (former USSR) (CIS)
Launch site: TYURATAM MISSILE AND SPACE COMPLEX (TTMTR)

Military communication.
aabbcc
Your satellite tracking list
Your tracking list is empty




NASA's NSSDC Master Catalog

Two Line Element Set (TLE):
1 28194U 04010A   19200.42143598 -.00000359  00000-0  00000+0 0  9994
2 28194  10.7127  39.5969 0001876 268.1165 270.1418  1.00285222 56080
Source of the keplerian elements: AFSPC